Regional Weather Roundup
Issued by NWS

Home | Current Version | Previous Version | Text Only | Print | Product List | Glossary On
Versions: 1 2 3 4 5 6 7 8 9 10 11 12 13 14 15 16 17 18 19 20 21 22 23 24 25 26 27 28 29 30 31 32 33 34 35 36 37 38 39 40 41 42 43 44 45 46 47 48 49 50
000
ASHW40 PHFO 202343
RWRHI

WEATHER ROUNDUP FOR HAWAII
NATIONAL WEATHER SERVICE HONOLULU HI
100 PM HST SUN AUG 20 2017

THIS IS AN AUTOMATED REPORT THAT HAS NOT BEEN QUALITY CONTROLLED.

NOTE..."FAIR" INDICATES FEW OR NO CLOUDS BELOW 12,000 FEET WITH NO
SIGNIFICANT WEATHER AND/OR OBSTRUCTIONS TO VISIBILITY.

* - THESE SITES REPORT LIMITED FIELDS
# - BUOY DATA PROVIDED BY PACIFIC ISLANDS OCEAN OBSERVING SYSTEM.

HIZ001>004-210000-
KAUAI-NIIHAU-

CITY           SKY/WX    TMP DP  RH WIND       PRES   REMARKS
LIHUE APT      MOSUNNY   87  71  58 NE14      30.01S HX  93
PORT ALLEN*      N/A     86 N/A N/A SW7G16      N/A
POIPU*           N/A     88 N/A N/A E9G17       N/A
PRINCEVILLE*     N/A     82 N/A N/A E8G15       N/A
KOKOLE POINT*  NOT AVBL
MOLOAA DAIRY*    N/A     88  72  58 E3G12       N/A  HX  94
WAIMEA HTS*      N/A     93  72  49 W8G17       N/A  HX 100
PUU OPAE*        N/A     82  64  54 SW8         N/A
PUU LUA*       NOT AVBL
MAKAHA RIDGE*    N/A     82  68  61 SW3         N/A
$$

HIZ005>011-210000-
OAHU-

CITY           SKY/WX    TMP DP  RH WIND       PRES   REMARKS
HONOLULU       MOSUNNY   86  69  56 NE15      29.95F HX  90
KALAELOA       PTSUNNY   88  71  57 NW14      29.97S HX  94
KANEOHE MCB    CLOUDY    86  74  67 NE9       29.96  HX  94
WHEELER FIELD  FAIR      87  70  57 E13       29.97F HX  91
BELLOWS*         N/A    N/A N/A N/A N8G14       N/A
KAHUKU*          N/A    N/A N/A N/A NE7G15      N/A
WHEELER*         N/A    N/A N/A N/A NE9G18      N/A
WAIANAE HARBOR   N/A    N/A N/A N/A SW8         N/A
DILLINGHAM*      N/A     91  79  66 S6G16       N/A  HX 107
KAHUKU TRN*      N/A     73  63  68 W7G18       N/A
KAWAILOA*        N/A     81  70  69 E13G22      N/A
KII*             N/A     82  75  78 E12G17      N/A
MAKUA RANGE*     N/A     72  57  60 NE6G13      N/A
OAHU FOREST NW   N/A     81  70  69 E13G25      N/A
SCHOFIELD BRK*   N/A     84  66  54 MISG        N/A
SCHOFIELD S*   NOT AVBL
WAIANAE VLY*     N/A     73  52  46 S7G15       N/A
KUAOKALA*        N/A     81  73  78 NE12G31     N/A
HONOULIUULI*   NOT AVBL
MOKUOLOE IS*   NOT AVBL
PALEHUA*         N/A     82  68  61 E5G15       N/A
WAIAWA PHB*    NOT AVBL
$$

HIZ012>013-210000-
MOLOKAI-

CITY           SKY/WX    TMP DP  RH WIND       PRES   REMARKS
MOLOKAI AIRPT  PTSUNNY   84  75  74 NE16G28   29.96F HX  92
KALAUPAPA      NOT AVBL
MAKAPULAPAI*     N/A     88  73  62 E17G24      N/A  HX  96
MOLOKAI 1*       N/A     64  50  59 E5G14       N/A
PUU ALII*        N/A     73  67  81 NE2G9       N/A
$$

HIZ016-210000-
KAHOOLAWE-

CITY           SKY/WX    TMP DP  RH WIND       PRES   REMARKS
KAHOOLAWE*     NOT AVBL
HAKIOAWA*        N/A     86  71  59 MISG      30.37F HX  91
HONOKANAIA*      N/A     91  72  52 NE15G28   29.88  HX  98
KANELOA*         N/A     84  73  70 NE18G32   30.02F HX  91
KEALIALALO*    NOT AVBL
LUA MAKIKA*    NOT AVBL
$$

HIZ014>015-210000-
LANAI-

CITY           SKY/WX    TMP DP  RH WIND       PRES   REMARKS
LANAI CITY     FAIR      84  73  69 N20       30.00F HX  90
LANAI 1*         N/A     72  63  73 NE18G25     N/A
$$

HIZ017>028-210000-
MAUI-

CITY           SKY/WX    TMP DP  RH WIND       PRES   REMARKS
KAHULUI        MOSUNNY   91  73  55 NE23G32   29.93S HX  99
KAPALUA-W MAUI MOSUNNY   90  70  51 NE21G28   29.95  HX  95
HANA AIRPORT   MOSUNNY   86  75  70 NE8       29.98F HX  95
HANA*          NOT AVBL
HALEAKALA SUMM NOT AVBL
MAALAEA BAY*     N/A     90 N/A N/A N21G31      N/A
HALEAKALA*     NOT AVBL
KAUPO GAP*     NOT AVBL
KULA 1*          N/A     71  57  61 NW7G13      N/A
$$

HIZ023>026-210000-
BIG ISLAND OF HAWAII COAST AND LOWER SLOPES-

CITY           SKY/WX    TMP DP  RH WIND       PRES   REMARKS
KAILUA KONA    MOSUNNY   88  72  58 SW12      29.89F HX  94
HILO           CLOUDY    81  77  89 CALM      29.95F FOG
HONOKAA*         N/A     79 N/A N/A VRB1        N/A
KAWAIHAE MWT*    N/A     86 N/A N/A W7          N/A
KAWAIHAE*        N/A     82 N/A N/A W3        29.90F
SOUTH POINT*     N/A     82 N/A N/A N22G31      N/A
UPOLU AIRPORT* NOT AVBL
KAMUELA*         N/A     82  68  61 NE14G26   30.04S
HAKALAU*         N/A     71  59  66 SE8G16      N/A
KALOKO-HONOKO*   N/A     88  73  62 SW10      29.89F HX  96
PALI 2*          N/A     84  66  54 W16G25      N/A
KEALAKOMO*       N/A     82  73  74 E16G24      N/A
KAUPULEHU*       N/A     90  72  55 W17G26      N/A  HX  96
KAPAPALA*        N/A     82  76  80 E7G22       N/A
LOWER KAHUKU*    N/A     75  73  94 E3G16       N/A
PUHE CS*         N/A     86  66  51 SW3         N/A
PUHO CS*         N/A     87  71  57 W3          N/A  HX  92
PTA KEAMUKU*     N/A     81  66  61 NE21G28     N/A
WAIKOLOA*        N/A     86  68  54 NW8G16      N/A
$$

HIZ027>028-210000-
BIG ISLAND OF HAWAII INTERIOR AND SUMMMITS-

CITY           SKY/WX    TMP DP  RH WIND       PRES   REMARKS
BRADSHAW FIELD MOSUNNY   77  45  31 SE9       30.30F
MK VISITOR CEN   N/A     57  43  58 E8          N/A
MAUNA KEA*       N/A     45   5  19 NE24        N/A
MAUNA LOA*       N/A     52  39  62 MISG        N/A
MAUNA LOA 1*   NOT AVBL
PTA KIPUKA*      N/A     70  63  78 SE7G15      N/A
PTA RANGE 17*    N/A     73  59  60 SE14G23     N/A
PTA WEST*        N/A     79  63  57 NW15G25     N/A
NENE CABIN*      N/A     66  57  72 E8G16       N/A
AHUMOA*          N/A     72  58  60 NW12G18     N/A
PTA PORTABLE*  NOT AVBL
PUU MALI*        N/A     63  63 100 W8          N/A
$$

HIC003-210000-
NORTHWEST ISLANDS-

CITY           SKY/WX    TMP DP  RH WIND       PRES   REMARKS
MIDWAY ISLAND  PTSUNNY   84  73  70 E18       30.16F HX  91
MIDWAY NOS*      N/A     82 N/A N/A MISG      30.14F
FRENCH FRIGATE NOT AVBL
$$

PHZ110>124-180-210000-
BUOY REPORTS

STATION/POSITION TIME  TEMP    WIND        PRES    WAVE   SWELL
                       AIR SEA DIR/SP/G            HT/PER HT/DIR
                 (UTC) (F)     (DEG/KT/KT) (MB)    (FT/S) (FT/D)
BUOY 51001       2320   81 82   60/ 10/ 14 1017.0
BUOY 51101       2250   80 82   60/ 12/ 14 1017.5F   5/ 8   3/110
BUOY 51100       NOT AVBL
BUOY 51002       2320   80 81   60/ 14/ 17 1012.1
BUOY 51003       2250   81 82   70/ 12/ 12 1014.0F   4/ 8   3/ 80
BUOY 51004       2250      80   80/ 14/ 16 1012.7F   6/ 7   5/ 70
WAIMEA BAY#      2302      79                N/A     3/ 6
MOKAPU POINT#    2304      81                N/A     4/ 7
LANAI#           NOT AVBL
BARBERS PT 2#    NOT AVBL
PAUWELA#         2309      80                N/A     4/ 7
HILO#            2327      82                N/A     4/ 7   2/120
KANEOHE BAY#     NOT AVBL
KANEOHE BAY 2#   NOT AVBL
HANALEI#         2322      81                N/A     4/ 6   2/320
KAHULUI HARBOR   2318           60/  9/ 19   N/A
HONOLULU HARBOR  2306   86 81   50/  6/ 13 1015.0
PEARL HARBOR#    2200      81                N/A     3/ 6   2/150
KILO NALU        NOT AVBL
HILO HARBOR      2318   82 81  130/  3/  5 1014.1
MOKUOLOE         2236   80 82   30/  7/  9 1015.4F
NAWILIWILI       2306   82 83   50/  9/ 14 1015.6
WHOTS BUOY       NOT AVBL
BUOY 51028       NOT AVBL
$$

......................KEY........................................
  SKY/WX - SKY CONDITIONS/PRESENT WEATHER
  TMP    - TEMPERATURE IN FAHRENHEIT
  DWPT   - DEWPOINT IN FAHRENHEIT
  RH     - RELATIVE HUMIDITY IN PERCENT
  WIND   - DIRECTION AND SPEED /MPH FOR ISLANDS...KTS FOR BUOYS/
  PRES   - MEAN SEA LEVEL PRESSURE IN INCHES OF HG
  VSB    - VISIBILITY IN MILES
  HX     - HEAT INDEX
  WCI    - WIND CHILL INDEX
  VRB    - VARIABLE WIND DIRECTION
  N/A    - NOT AVAILABLE



USA.gov is the U.S. government's official web portal to all federal, state and local government web resources and services.